[[{"header":{"parameterUnit":"m.s-1","parameterCategory":1,"la1":30.2991,"la2":30.254,"lo1":-89.0895,"lo2":-89.0444,"dy":0.0017,"dx":0.0017,"nx":28,"ny":28,"refTime":"2025-07-12T09:00:00:Z","depth":0,"parameterNumber":2,"parameterNumberName":"U-component_of_WINDS"},"data":[0,0,0,0,0,0,0,0,0,0,0,0,0,0,0,0,0,0,0,0,0,0,0,0,0,0,0,0,0,0,0,0,0,0,0,0,0,0,0,0,0,0,0,0,0,0,0,0,0,0,0,0,0,0,0,0,0,0,0.9043,0.9043,0,0.9048,0.9049,0.9049,0.9063,0.9063,0.9063,0.9064,0.9067,0.9067,0.9066,0,0,0,0,0,0,0,0,0,0,0,0,0,0.9043,0.9042,0.9043,0.9043,0.9043,0.9048,0.9049,0.9049,0.9063,0.9063,0.9063,0.9064,0.9067,0.9067,0.9066,0,0,0,0,0,0,0,0,0,0,0,0,0,0.9045,0.9042,0.9043,0.9051,0.9052,0.9048,0.9049,0.9049,0.9063,0.9063,0.9064,0.9064,0.9067,0.9067,0.9066,0.9055,0,0,0.9066,0.9065,0,0,0,0,0,0,0,0,0.9045,0.9045,0.905,0.905,0.9051,0.9055,0.905,0.9051,0.9062,0.9058,0.9064,0.9064,0.9063,0.9063,0.9063,0.9056,0.9056,0.9065,0.9065,0.9065,0.9065,0,0,0,0,0,0,0,0.9044,0.9045,0.9045,0.905,0.905,0.9053,0.9054,0.905,0.9058,0.9059,0.906,0.906,0.9063,0.9063,0.9063,0.9056,0.9065,0.9065,0.9065,0.9065,0.9041,0.904,0,0,0,0,0,0,0.9043,0.9044,0.9045,0.9045,0.9049,0.9053,0.9054,0.9053,0.9058,0.9059,0.906,0.9061,0.9063,0.9063,0.9063,0.9051,0.9065,0.9065,0.9065,0.9041,0.9041,0.904,0,0,0,0,0,0,0.9043,0.9043,0.9045,0.9045,0.9045,0.9053,0.9052,0.9053,0.9053,0.9059,0.906,0.9059,0.9063,0.9063,0.9058,0.9051,0.9065,0.9064,0.9042,0.9041,0.904,0.9027,0,0,0,0,0,0,0.9043,0.9043,0.904,0.9045,0.9045,0.904,0.9052,0.9053,0.9053,0.9054,0.9058,0.9059,0.9064,0.9058,0.9057,0.9051,0.9064,0.9042,0.9042,0.9041,0.9028,0.9026,0.9024,0,0,0,0,0,0.9043,0.9035,0.9039,0.9039,0.9041,0.9039,0.9039,0.9046,0.9052,0.9049,0.9052,0.9059,0.9052,0.9057,0.9057,0.905,0.9043,0.9042,0.9041,0.9029,0.9026,0.9024,0,0,0,0,0,0,0.9027,0.9036,0.9041,0.9034,0.9036,0.9042,0.9037,0.9043,0.9043,0.9044,0.9052,0.9052,0.9046,0.9047,0.9053,0.904,0.9049,0.9047,0.904,0.9037,0.9035,0.9035,0.9064,0,0,0,0,0,0.9023,0.9022,0.9029,0.9022,0.9023,0.903,0.9029,0.9034,0.9036,0.9037,0.904,0.9042,0.904,0.9039,0.9037,0.9028,0.9029,0.9024,0.9022,0.902,0.9019,0.9015,0.9013,0.9037,0.9037,0.9037,0,0,0.9014,0.9018,0.9017,0.9019,0.9021,0.9019,0.903,0.9027,0.9026,0.9036,0.9032,0.9034,0.9036,0.9029,0.9026,0.903,0.9013,0.9019,0.9017,0.9017,0.9014,0.9012,0.901,0.9036,0.9036,0.9036,0,0,0.8997,0.9,0.8995,0.8998,0.9001,0.9006,0.9005,0.901,0.9012,0.9008,0.9016,0.9014,0.9011,0.9012,0.9012,0.8997,0.9003,0.8996,0.8986,0.8982,0.898,0.8979,0.8974,0.8972,0.8995,0.8995,0.8995,0,0.8985,0.8983,0.8992,0.8989,0.899,0.9,0.8995,0.8997,0.8999,0.8999,0.9004,0.9001,0.9003,0.8997,0.8993,0.8993,0.8992,0.8996,0.898,0.8979,0.8977,0.8973,0.8971,0.8994,0.8994,0.8994,0.8994,0,0.8969,0.8968,0.8963,0.8967,0.8967,0.8963,0.897,0.8969,0.8975,0.8979,0.8974,0.8977,0.8977,0.8976,0.898,0.897,0.8973,0.8979,0.8987,0.8974,0.897,0.8968,0.8993,0.8993,0.8993,0.8994,0,0,0.8942,0.8951,0.8949,0.8952,0.8957,0.8956,0.8952,0.8953,0.8952,0.8954,0.8951,0.8949,0.8955,0.8955,0.896,0.8956,0.8945,0.8962,0.8963,0.896,0.8935,0.8931,0.8929,0.8949,0.8948,0.8948,0.8935,0,0.8927,0.8922,0.893,0.8924,0.8923,0.8933,0.893,0.8933,0.8936,0.8936,0.894,0.8938,0.8945,0.8946,0.8943,0.8947,0.894,0.8948,0.8946,0.8946,0.8946,0.8927,0.8922,0.891,0.8933,0.8933,0.8933,0,0.8908,0.891,0.8904,0.8911,0.8911,0.8908,0.891,0.8909,0.8912,0.8915,0.8916,0.8923,0.8919,0.8927,0.8923,0.8928,0.8928,0.893,0.893,0.893,0.8939,0.8927,0.8906,0.8905,0.893,0.893,0.8931,0,0.889,0.8891,0.8888,0.8889,0.8897,0.8895,0.8898,0.8901,0.8902,0.8903,0.8904,0.8904,0.8904,0.8905,0.8911,0.8916,0.8906,0.8914,0.8909,0.8909,0.8907,0.8907,0.8886,0.8905,0.8905,0.8905,0.8905,0,0.8873,0.8869,0.888,0.8878,0.8874,0.8883,0.8878,0.8882,0.8886,0.8884,0.8892,0.8891,0.8899,0.8898,0.8903,0.8899,0.8899,0.8901,0.8903,0.8901,0.8901,0.8901,0.8903,0.8905,0.8905,0.8905,0.8905,0,0.8852,0.886,0.8857,0.8864,0.8866,0.8863,0.8869,0.8868,0.8872,0.8871,0.8871,0.8878,0.8877,0.8884,0.8884,0.8887,0.8882,0.8884,0.8881,0.8882,0.8876,0.8877,0.8855,0.8853,0.8874,0.8873,0.8873,0,0.8841,0.8838,0.8846,0.8846,0.8849,0.8849,0.885,0.8858,0.8859,0.8863,0.8861,0.8861,0.8862,0.8861,0.8866,0.8867,0.887,0.8862,0.887,0.8868,0.8871,0.8871,0.8871,0.8861,0.886,0.886,0.886,0,0.882,0.8824,0.8826,0.8829,0.883,0.8832,0.8835,0.8834,0.8844,0.8844,0.8844,0.8845,0.8846,0.8847,0.8848,0.8851,0.8857,0.8857,0.8856,0.8855,0.8854,0.8855,0.8877,0.8858,0.8858,0.8858,0.8858,0.8858,0.8804,0.8803,0.8809,0.881,0.8813,0.8816,0.8815,0.882,0.8821,0.8824,0.8828,0.8828,0.8832,0.8835,0.8837,0.8837,0.884,0.8838,0.8838,0.8838,0.8837,0.8853,0.8837,0.8837,0.8837,0.8837,0.8837,0,0.8785,0.8789,0.8791,0.8795,0.8796,0.8803,0.8806,0.8807,0.8807,0.881,0.8812,0.8812,0.8813,0.8819,0.882,0.8819,0.8822,0.8819,0.8819,0.882,0.8833,0.8835,0.8817,0.8817,0.8817,0.8817,0.8817,0.8817,0.8775,0.8774,0.8778,0.8779,0.8783,0.8783,0.8785,0.8788,0.8791,0.8791,0.8793,0.8796,0.8801,0.8803,0.8804,0.8805,0.8805,0.8802,0.8804,0.8817,0.8819,0.8821,0.8822,0.8802,0.8802,0.8791,0.8791,0.8791]},{"header":{"parameterUnit":"m.s-1","parameterCategory":1,"la1":30.2991,"la2":30.254,"lo1":-89.0895,"lo2":-89.0444,"dy":0.0017,"dx":0.0017,"nx":28,"ny":28,"refTime":"2025-07-12T09:00:00:Z","depth":0,"parameterNumber":3,"parameterNumberName":"V-component_of_WINDS"},"data":[0,0,0,0,0,0,0,0,0,0,0,0,0,0,0,0,0,0,0,0,0,0,0,0,0,0,0,0,0,0,0,0,0,0,0,0,0,0,0,0,0,0,0,0,0,0,0,0,0,0,0,0,0,0,0,0,0,0,-0.7472,-0.7472,0,-0.7465,-0.7465,-0.7465,-0.7445,-0.7445,-0.7444,-0.7444,-0.7436,-0.7436,-0.7437,0,0,0,0,0,0,0,0,0,0,0,0,0,-0.7468,-0.7468,-0.7472,-0.7472,-0.7472,-0.7465,-0.7465,-0.7465,-0.7445,-0.7445,-0.7444,-0.7444,-0.7436,-0.7436,-0.7437,0,0,0,0,0,0,0,0,0,0,0,0,0,-0.7466,-0.7468,-0.7472,-0.7461,-0.746,-0.7465,-0.7465,-0.7465,-0.7446,-0.7445,-0.7444,-0.7444,-0.7436,-0.7436,-0.7437,-0.7451,0,0,-0.7437,-0.7438,0,0,0,0,0,0,0,0,-0.7466,-0.7466,-0.7463,-0.7462,-0.7461,-0.7455,-0.7461,-0.746,-0.7446,-0.7451,-0.7444,-0.7443,-0.7443,-0.7443,-0.7443,-0.7451,-0.745,-0.7437,-0.7438,-0.7438,-0.7438,0,0,0,0,0,0,0,-0.7466,-0.7466,-0.7469,-0.7463,-0.7462,-0.7457,-0.7456,-0.746,-0.7451,-0.7451,-0.7449,-0.7449,-0.7442,-0.7443,-0.7442,-0.745,-0.7437,-0.7438,-0.7438,-0.7438,-0.747,-0.7471,0,0,0,0,0,0,-0.7468,-0.7467,-0.7469,-0.7469,-0.7462,-0.7457,-0.7456,-0.7458,-0.7451,-0.7449,-0.7449,-0.7448,-0.7442,-0.7442,-0.7442,-0.7459,-0.7438,-0.7438,-0.7438,-0.747,-0.7471,-0.7471,0,0,0,0,0,0,-0.7468,-0.7468,-0.747,-0.7467,-0.7467,-0.7458,-0.746,-0.7458,-0.7458,-0.745,-0.7448,-0.7451,-0.7442,-0.7442,-0.7449,-0.7458,-0.7438,-0.7438,-0.7469,-0.747,-0.7471,-0.7493,0,0,0,0,0,0,-0.7468,-0.7468,-0.7474,-0.7468,-0.7467,-0.7477,-0.746,-0.7458,-0.7459,-0.7457,-0.7451,-0.7449,-0.7441,-0.7449,-0.7449,-0.7459,-0.7439,-0.7468,-0.7469,-0.7471,-0.7491,-0.7494,-0.7497,0,0,0,0,0,-0.7468,-0.748,-0.7474,-0.7475,-0.7474,-0.7478,-0.7477,-0.7468,-0.746,-0.7465,-0.746,-0.745,-0.7457,-0.745,-0.745,-0.746,-0.7467,-0.7469,-0.747,-0.749,-0.7494,-0.7497,0,0,0,0,0,0,-0.7487,-0.7479,-0.7472,-0.7483,-0.7481,-0.7474,-0.7481,-0.7473,-0.7473,-0.7471,-0.7459,-0.7458,-0.7467,-0.7464,-0.7456,-0.7474,-0.7461,-0.7463,-0.7475,-0.7479,-0.7482,-0.7483,-0.7439,0,0,0,0,0,-0.7492,-0.7496,-0.7489,-0.7499,-0.7498,-0.749,-0.7491,-0.7484,-0.7482,-0.7481,-0.7476,-0.7474,-0.7476,-0.7477,-0.7478,-0.7491,-0.7489,-0.7497,-0.75,-0.7503,-0.7505,-0.7512,-0.7515,-0.7476,-0.7476,-0.7476,0,0,-0.7504,-0.75,-0.7503,-0.7503,-0.75,-0.7505,-0.7489,-0.7494,-0.7497,-0.7481,-0.7488,-0.7485,-0.7482,-0.7492,-0.7496,-0.7489,-0.7515,-0.7505,-0.7507,-0.7507,-0.7514,-0.7517,-0.752,-0.7477,-0.7477,-0.7477,0,0,-0.7526,-0.7524,-0.7532,-0.7531,-0.7528,-0.7522,-0.7524,-0.7519,-0.7516,-0.7523,-0.7511,-0.7515,-0.7518,-0.7517,-0.7516,-0.754,-0.7531,-0.754,-0.7556,-0.7563,-0.7566,-0.7569,-0.7578,-0.7581,-0.7542,-0.7542,-0.7542,0,-0.7541,-0.7547,-0.7537,-0.7543,-0.7544,-0.753,-0.7539,-0.7538,-0.7535,-0.7536,-0.7529,-0.7534,-0.753,-0.754,-0.7546,-0.7546,-0.7548,-0.7541,-0.7567,-0.7569,-0.7571,-0.758,-0.7583,-0.7543,-0.7543,-0.7543,-0.7543,0,-0.7565,-0.7569,-0.7576,-0.7575,-0.7576,-0.7584,-0.7575,-0.7578,-0.7571,-0.7566,-0.7574,-0.757,-0.757,-0.7572,-0.7565,-0.7582,-0.7578,-0.7569,-0.7556,-0.7577,-0.7584,-0.7587,-0.7545,-0.7545,-0.7544,-0.7544,0,0,-0.7599,-0.7593,-0.7596,-0.7596,-0.7592,-0.7595,-0.7602,-0.7603,-0.7606,-0.7604,-0.761,-0.7614,-0.7606,-0.7606,-0.7599,-0.7605,-0.7624,-0.7595,-0.7595,-0.7601,-0.7642,-0.7649,-0.7653,-0.7618,-0.7619,-0.7619,-0.7643,0,-0.7621,-0.7632,-0.7625,-0.7638,-0.7642,-0.763,-0.7636,-0.7634,-0.763,-0.7633,-0.7628,-0.7631,-0.762,-0.762,-0.7625,-0.7621,-0.7632,-0.7619,-0.7623,-0.7624,-0.7625,-0.7657,-0.7664,-0.7687,-0.7646,-0.7646,-0.7646,0,-0.7648,-0.7649,-0.7663,-0.7659,-0.766,-0.7666,-0.7667,-0.767,-0.7668,-0.7664,-0.7665,-0.7656,-0.7663,-0.765,-0.7659,-0.765,-0.7652,-0.765,-0.765,-0.765,-0.7636,-0.7658,-0.7693,-0.7697,-0.7651,-0.765,-0.765,0,-0.7672,-0.7677,-0.7686,-0.7686,-0.7681,-0.7686,-0.7684,-0.7682,-0.7683,-0.7684,-0.7685,-0.7686,-0.7687,-0.7688,-0.768,-0.7672,-0.769,-0.7677,-0.7688,-0.7688,-0.7692,-0.7692,-0.7729,-0.7693,-0.7693,-0.7693,-0.7693,0,-0.7698,-0.7706,-0.7697,-0.7702,-0.7712,-0.7703,-0.7713,-0.771,-0.7708,-0.7713,-0.7702,-0.7707,-0.7696,-0.77,-0.7694,-0.7702,-0.7703,-0.77,-0.7699,-0.7701,-0.7702,-0.7702,-0.7701,-0.7694,-0.7694,-0.7693,-0.7693,0,-0.7726,-0.772,-0.7729,-0.7725,-0.7724,-0.7731,-0.7727,-0.7732,-0.7728,-0.7734,-0.7735,-0.7728,-0.7731,-0.7724,-0.7727,-0.7723,-0.7735,-0.7731,-0.7736,-0.7735,-0.7747,-0.7746,-0.7785,-0.7789,-0.775,-0.7751,-0.7751,0,-0.7743,-0.775,-0.7746,-0.7749,-0.7748,-0.7752,-0.7754,-0.7746,-0.7748,-0.7747,-0.7752,-0.7755,-0.7757,-0.7764,-0.7759,-0.7761,-0.7757,-0.777,-0.7757,-0.776,-0.7758,-0.7757,-0.7758,-0.7773,-0.7774,-0.7774,-0.7774,0,-0.7774,-0.777,-0.7774,-0.7776,-0.7779,-0.778,-0.778,-0.7783,-0.7774,-0.7777,-0.7781,-0.7783,-0.7786,-0.7789,-0.779,-0.7789,-0.778,-0.7779,-0.7781,-0.7784,-0.7787,-0.7786,-0.7744,-0.7778,-0.7777,-0.7777,-0.7777,-0.7777,-0.7797,-0.7803,-0.7802,-0.7806,-0.7805,-0.7806,-0.7811,-0.7807,-0.7811,-0.7813,-0.7808,-0.7813,-0.7812,-0.7813,-0.7812,-0.7816,-0.781,-0.7814,-0.7815,-0.7816,-0.7818,-0.7787,-0.7816,-0.7816,-0.7816,-0.7816,-0.7816,0,-0.7828,-0.7827,-0.783,-0.7832,-0.7835,-0.7827,-0.7828,-0.7831,-0.7836,-0.7836,-0.7838,-0.7843,-0.7847,-0.7842,-0.7845,-0.7849,-0.7845,-0.785,-0.785,-0.785,-0.7823,-0.7821,-0.7853,-0.7853,-0.7853,-0.7853,-0.7853,-0.7853,-0.7844,-0.7854,-0.785,-0.786,-0.7858,-0.7864,-0.7865,-0.7866,-0.7866,-0.7872,-0.7875,-0.7872,-0.7871,-0.7873,-0.7876,-0.7875,-0.7876,-0.7882,-0.788,-0.7855,-0.7851,-0.7848,-0.7846,-0.7883,-0.7883,-0.7906,-0.7906,-0.7906]}]]